• In Österreich
  • Länderverzeichnis
  • Für 7 Tage
  • Wassertemperatur
  • Satellitenkarten
  • Wetterkarte
  • News
  • Widgets
  • user-avatar
    Anmelden

    Stündliche Wetter Chysten'ke

    Heute, 20 August, Montag

    Zeit Temperatur Niederschläge Wind Luftdruck Luftfeuchtigkeit
    00:00 +18°C° 0 mm 4 m/S 735 mmHg 66%
    01:00 +17°C° 0 mm 4 m/S 735 mmHg 68%
    02:00 +17°C° 0 mm 4 m/S 735 mmHg 70%
    03:00 +17°C° 0 mm 4 m/S 735 mmHg 71%
    04:00 +15°C° 0 mm 4 m/S 735 mmHg 72%
    05:00 +15°C° 0 mm 4 m/S 734 mmHg 73%
    06:00 +19°C° 0 mm 5 m/S 735 mmHg 61%
    07:00 +21°C° 0 mm 6 m/S 735 mmHg 49%
    08:00 +24°C° 0 mm 7 m/S 735 mmHg 37%
    09:00 +26°C° 0 mm 7 m/S 735 mmHg 34%
    10:00 +27°C° 0 mm 7 m/S 735 mmHg 31%
    11:00 +28°C° 0 mm 7 m/S 735 mmHg 28%
    12:00 +28°C° 0 mm 7 m/S 735 mmHg 28%
    13:00 +28°C° 0 mm 7 m/S 735 mmHg 28%
    14:00 +28°C° 0 mm 7 m/S 735 mmHg 29%
    15:00 +28°C° 0 mm 6 m/S 735 mmHg 31%
    16:00 +27°C° 0 mm 6 m/S 734 mmHg 33%
    17:00 +26°C° 0 mm 6 m/S 734 mmHg 35%
    18:00 +23°C° 0 mm 5 m/S 734 mmHg 41%
    19:00 +21°C° 0 mm 5 m/S 734 mmHg 48%
    20:00 +18°C° 0 mm 4 m/S 734 mmHg 55%
    21:00 +18°C° 0 mm 4 m/S 734 mmHg 57%
    22:00 +18°C° 0 mm 4 m/S 734 mmHg 60%
    23:00 +17°C° 0 mm 4 m/S 734 mmHg 62%

    Morgen, 21 August, Dienstag

    Zeit Temperatur Niederschläge Wind Luftdruck Luftfeuchtigkeit
    00:00 +17°C° 0 mm 4 m/S 733 mmHg 64%
    01:00 +17°C° 0 mm 4 m/S 733 mmHg 65%
    02:00 +17°C° 0 mm 4 m/S 733 mmHg 66%
    03:00 +17°C° 0 mm 3 m/S 733 mmHg 66%
    04:00 +17°C° 0 mm 3 m/S 733 mmHg 66%
    05:00 +17°C° 0 mm 3 m/S 733 mmHg 66%
    06:00 +19°C° 0 mm 4 m/S 734 mmHg 58%
    07:00 +22°C° 0 mm 4 m/S 734 mmHg 49%
    08:00 +25°C° 0 mm 4 m/S 734 mmHg 40%
    09:00 +27°C° 0 mm 4 m/S 735 mmHg 35%
    10:00 +28°C° 0 mm 4 m/S 735 mmHg 30%
    11:00 +30°C° 0 mm 4 m/S 735 mmHg 25%
    12:00 +30°C° 0 mm 4 m/S 735 mmHg 25%
    13:00 +30°C° 0 mm 4 m/S 735 mmHg 25%
    14:00 +30°C° 0 mm 4 m/S 735 mmHg 24%
    15:00 +30°C° 0 mm 4 m/S 734 mmHg 26%
    16:00 +29°C° 0 mm 4 m/S 734 mmHg 27%
    17:00 +28°C° 0 mm 4 m/S 734 mmHg 28%
    18:00 +25°C° 0 mm 3 m/S 734 mmHg 32%
    19:00 +22°C° 0 mm 3 m/S 734 mmHg 35%
    20:00 +19°C° 0 mm 2 m/S 734 mmHg 39%
    21:00 +19°C° 0 mm 2 m/S 734 mmHg 38%
    22:00 +19°C° 0 mm 2 m/S 734 mmHg 37%
    23:00 +19°C° 0 mm 2 m/S 734 mmHg 36%

    übermorgen, 22 August, Mittwoch

    Zeit Temperatur Niederschläge Wind Luftdruck Luftfeuchtigkeit
    00:00 +18°C° 0 mm 2 m/S 734 mmHg 37%
    01:00 +18°C° 0 mm 2 m/S 734 mmHg 37%
    02:00 +18°C° 0 mm 2 m/S 734 mmHg 38%
    03:00 +18°C° 0 mm 2 m/S 734 mmHg 39%
    04:00 +18°C° 0 mm 2 m/S 734 mmHg 40%
    05:00 +18°C° 0 mm 2 m/S 734 mmHg 41%
    06:00 +20°C° 0 mm 2 m/S 735 mmHg 37%
    07:00 +24°C° 0 mm 2 m/S 735 mmHg 33%
    08:00 +27°C° 0 mm 2 m/S 735 mmHg 30%
    09:00 +29°C° 0 mm 2 m/S 735 mmHg 27%
    10:00 +30°C° 0 mm 2 m/S 736 mmHg 24%
    11:00 +33°C° 0 mm 3 m/S 736 mmHg 20%
    12:00 +33°C° 0 mm 3 m/S 736 mmHg 20%
    13:00 +34°C° 0 mm 3 m/S 736 mmHg 20%
    14:00 +34°C° 0 mm 3 m/S 736 mmHg 20%
    15:00 +33°C° 0 mm 3 m/S 735 mmHg 22%
    16:00 +31°C° 0 mm 3 m/S 735 mmHg 25%
    17:00 +31°C° 0 mm 3 m/S 735 mmHg 27%
    18:00 +28°C° 0 mm 3 m/S 735 mmHg 31%
    19:00 +26°C° 0 mm 3 m/S 735 mmHg 35%
    20:00 +24°C° 0 mm 2 m/S 736 mmHg 40%
    21:00 +23°C° 0 mm 2 m/S 735 mmHg 40%
    22:00 +23°C° 0 mm 2 m/S 735 mmHg 40%
    23:00 +21°C° 0 mm 2 m/S 735 mmHg 41%

    23 August, Donnerstag

    Zeit Temperatur Niederschläge Wind Luftdruck Luftfeuchtigkeit
    00:00 +21°C° 0 mm 2 m/S 735 mmHg 43%
    01:00 +20°C° 0 mm 3 m/S 735 mmHg 45%
    02:00 +20°C° 0 mm 3 m/S 735 mmHg 47%
    03:00 +20°C° 0 mm 3 m/S 735 mmHg 52%
    04:00 +20°C° 0 mm 3 m/S 735 mmHg 58%
    05:00 +19°C° 0 mm 3 m/S 735 mmHg 63%
    06:00 +21°C° 0 mm 4 m/S 735 mmHg 61%
    07:00 +25°C° 0 mm 4 m/S 735 mmHg 59%
    08:00 +27°C° 0 mm 4 m/S 735 mmHg 56%
    09:00 +28°C° 0 mm 4 m/S 736 mmHg 51%
    10:00 +29°C° 0 mm 5 m/S 736 mmHg 46%
    11:00 +30°C° 0 mm 5 m/S 736 mmHg 41%
    12:00 +30°C° 0 mm 5 m/S 735 mmHg 40%
    13:00 +30°C° 0 mm 6 m/S 735 mmHg 40%
    14:00 +30°C° 0 mm 6 m/S 735 mmHg 39%
    15:00 +30°C° 0 mm 6 m/S 735 mmHg 40%
    16:00 +29°C° 0 mm 6 m/S 735 mmHg 42%
    17:00 +28°C° 0 mm 5 m/S 735 mmHg 43%
    18:00 +26°C° 0 mm 5 m/S 735 mmHg 48%
    19:00 +23°C° 0 mm 4 m/S 734 mmHg 53%
    20:00 +21°C° 0 mm 4 m/S 734 mmHg 58%
    21:00 +21°C° 0 mm 4 m/S 734 mmHg 59%
    22:00 +20°C° 0 mm 4 m/S 734 mmHg 59%
    23:00 +20°C° 0 mm 3 m/S 734 mmHg 59%

    24 August, Freitag

    Zeit Temperatur Niederschläge Wind Luftdruck Luftfeuchtigkeit
    00:00 +20°C° 0 mm 4 m/S 733 mmHg 61%
    01:00 +20°C° 0 mm 4 m/S 733 mmHg 62%
    02:00 +19°C° 0 mm 4 m/S 733 mmHg 64%
    03:00 +19°C° 0 mm 4 m/S 733 mmHg 67%
    04:00 +19°C° 0 mm 4 m/S 733 mmHg 71%
    05:00 +19°C° 0 mm 4 m/S 733 mmHg 74%
    06:00 +21°C° 0 mm 4 m/S 733 mmHg 65%
    07:00 +25°C° 0 mm 4 m/S 733 mmHg 56%
    08:00 +28°C° 0 mm 4 m/S 733 mmHg 46%
    09:00 +29°C° 0 mm 5 m/S 733 mmHg 41%
    10:00 +32°C° 0 mm 5 m/S 733 mmHg 35%
    11:00 +34°C° 0 mm 5 m/S 733 mmHg 30%
    12:00 +34°C° 0 mm 5 m/S 733 mmHg 30%
    13:00 +34°C° 0 mm 5 m/S 733 mmHg 30%
    14:00 +34°C° 0 mm 5 m/S 733 mmHg 30%
    15:00 +33°C° 0 mm 5 m/S 732 mmHg 32%
    16:00 +32°C° 0 mm 5 m/S 732 mmHg 35%
    17:00 +30°C° 0 mm 5 m/S 732 mmHg 37%
    18:00 +28°C° 0 mm 4 m/S 732 mmHg 42%
    19:00 +25°C° 0 mm 4 m/S 732 mmHg 48%
    20:00 +22°C° 0 mm 3 m/S 732 mmHg 53%
    21:00 +22°C° 0 mm 3 m/S 732 mmHg 55%
    22:00 +21°C° 0 mm 2 m/S 731 mmHg 57%
    23:00 +21°C° 0 mm 2 m/S 731 mmHg 59%

    25 August, Samstag

    Zeit Temperatur Niederschläge Wind Luftdruck Luftfeuchtigkeit
    00:00 +21°C° 0 mm 2 m/S 731 mmHg 59%
    01:00 +21°C° 0 mm 2 m/S 731 mmHg 59%
    02:00 +21°C° 0 mm 2 m/S 731 mmHg 59%
    03:00 +21°C° 0 mm 2 m/S 731 mmHg 59%
    04:00 +21°C° 0 mm 2 m/S 731 mmHg 59%
    05:00 +21°C° 0 mm 3 m/S 731 mmHg 59%
    06:00 +24°C° 0 mm 3 m/S 731 mmHg 54%
    07:00 +26°C° 0 mm 3 m/S 731 mmHg 49%
    08:00 +28°C° 0 mm 3 m/S 731 mmHg 43%
    09:00 +29°C° 0 mm 3 m/S 732 mmHg 40%
    10:00 +31°C° 0 mm 3 m/S 732 mmHg 37%
    11:00 +33°C° 0 mm 4 m/S 732 mmHg 34%
    12:00 +33°C° 0 mm 4 m/S 732 mmHg 34%
    13:00 +34°C° 0 mm 4 m/S 731 mmHg 34%
    14:00 +34°C° 0 mm 4 m/S 731 mmHg 34%
    15:00 +33°C° 0 mm 3 m/S 731 mmHg 37%
    16:00 +31°C° 0 mm 3 m/S 731 mmHg 40%
    17:00 +30°C° 0 mm 3 m/S 731 mmHg 43%
    18:00 +28°C° 0 mm 2 m/S 731 mmHg 49%
    19:00 +25°C° 0 mm 2 m/S 731 mmHg 55%
    20:00 +23°C° 0 mm 1 m/S 730 mmHg 61%
    21:00 +23°C° 0 mm 1 m/S 730 mmHg 62%
    22:00 +23°C° 0 mm 1 m/S 730 mmHg 64%
    23:00 +22°C° 0 mm 1 m/S 730 mmHg 65%
    Mehr zeigen